Location: Star Dogged Moon Observatory
(29.7756°N, 82.0783°W)
Time: 17:27:47
(UTC-04:00)

ARGOS - Visible Passes

Search period start: 24 May 2016 00:00
Search period end: 03 June 2016 00:00
Orbit: 821 x 834 km, 98.7° (Epoch: 23 May)

Date Brightness Start Highest point End Pass type
(mag) Time Alt. Az. Time Alt. Az. Time Alt. Az.
24 May 3.2 22:48:12 61° ENE 22:48:12 61° ENE 22:53:24 10° N visible
25 May 5.7 00:29:43 11° W 00:29:43 11° W 00:30:35 10° WNW visible
25 May 3.7 22:29:23 39° ENE 22:29:36 40° ENE 22:34:38 10° N visible
26 May 5.3 00:10:54 18° W 00:10:54 18° W 00:13:43 10° NW visible
26 May 4.3 22:10:35 26° E 22:11:13 26° ENE 22:15:39 10° NNE visible
26 May 4.7 23:52:05 29° W 23:52:05 29° W 23:55:58 10° NW visible
27 May 4.8 21:51:45 16° E 21:52:52 17° ENE 21:56:19 10° NNE visible
27 May 4.0 23:33:16 45° W 23:33:16 45° W 23:37:52 10° NNW visible
28 May 5.2 21:33:07 10° E 21:34:35 11° ENE 21:36:02 10° NE visible
28 May 3.3 23:14:27 70° WNW 23:14:27 70° WNW 23:19:32 10° NNW visible
29 May 3.1 22:55:38 74° ENE 22:55:38 74° ENE 23:01:01 10° N visible
30 May 3.5 22:36:49 47° E 22:37:08 47° ENE 22:42:20 10° N visible
31 May 5.4 00:18:20 16° W 00:18:20 16° W 00:20:47 10° WNW visible
31 May 4.1 22:18:00 30° E 22:18:44 31° ENE 22:23:26 10° N visible
31 May 4.9 23:59:31 24° W 23:59:31 24° W 00:03:17 10° NW visible
01 Jun 4.6 21:59:12 19° E 22:00:22 21° ENE 22:04:17 10° NNE visible
01 Jun 4.2 23:40:43 38° W 23:40:43 38° W 23:45:18 10° NNW visible
02 Jun 5.0 21:40:23 12° E 21:42:03 13° ENE 21:44:35 10° NE visible
02 Jun 3.5 23:21:54 60° W 23:21:54 60° W 23:27:03 10° NNW visible
